カタログに戻る

STARLINK-5128

運用中通信VLEO
NORAD 53998·PAYLOAD·🇺🇸 United States

打ち上げ Oct 5, 2022 から Vandenberg Space Force Base

Loading…

次のパス (今後24時間)

TLE

最新Source: CelesTrak SupGP

元期: Sep 15, 2026, 02:52 UTC

1 53998C 22125AL  26258.11993056  .00681940  00000+0  34637-1 0  2582
2 53998  53.1591  82.6721 0001293  88.5629   4.8357 15.16041052    12

AllMySatでSTARLINK-5128をリアルタイム追跡

Download on the App Store